DW2485 Weather Reports


time (UTC)temp
C
wind
direction
speed
KPH
gust
KPH
rain 1hr
cm
rain 24hr
cm
rain mn
cm
humidity
%
barometer
mb
20260505072504 10 326 19.3 27.4 0.00 0.00 0.00 100 1009.4
20260505072004 10 347 14.5 25.7 0.00 0.00 0.00 100 1009.1
20260505071503 10 321 19.3 27.4 0.00 0.00 0.00 100 1009.3
20260505071004 10 332 11.3 27.4 0.00 0.00 0.00 100 1009.2
20260505065504 10 317 17.7 24.1 0.00 0.00 0.00 100 1008.8
20260505061504 10 328 22.5 38.6 0.00 0.00 0.00 100 1007.4
20260505061004 10 335 32.2 40.2 0.00 0.00 0.00 100 1007.2
20260505060504 10 338 27.4 41.8 0.00 0.00 0.00 100 1007.5
20260505060004 10 316 27.4 37.0 0.00 0.00 0.00 100 1007.8
20260505055503 10 326 32.2 46.7 0.00 0.00 0.00 100 1007.8
20260505054504 11 312 20.9 33.8 0.00 0.00 0.00 100 1007.7
20260505053504 11 315 22.5 32.2 0.00 0.00 0.00 100 1007.6
20260505052504 11 341 16.1 27.4 0.00 0.00 0.00 100 1007.0
20260505040506 12 307 11.3 16.1 0.00 0.00 0.00 100 1007.0
20260505035505 12 309 12.9 14.5 0.00 0.00 0.00 100 1006.8
20260505033006 13 307 12.9 20.9 0.00 0.00 0.00 100 1006.5
20260505031506 13 306 11.3 16.1 0.00 0.00 0.00 100 1006.2
20260505025506 14 306 11.3 19.3 0.00 0.00 0.00 100 1006.1
20260505022005 15 312 17.7 25.7 0.00 0.00 0.00 100 1005.5
20260505021006 15 323 17.7 22.5 0.00 0.00 0.00 100 1005.3
20260505020005 15 323 17.7 22.5 0.00 0.00 0.00 100 1005.0
20260505015505 16 324 16.1 25.7 0.00 0.00 0.00 100 1004.9
20260505014506 16 316 14.5 32.2 0.00 0.00 0.00 100 1004.6
20260505012505 17 320 25.7 37.0 0.00 0.00 0.00 100 1003.9
20260505011005 17 317 25.7 37.0 0.00 0.00 0.00 100 1003.6
20260505010006 18 316 30.6 46.7 0.00 0.00 0.00 100 1003.1
20260505005005 18 314 24.1 37.0 0.00 0.00 0.00 100 1002.8
20260505004506 19 313 27.4 41.8 0.00 0.00 0.00 100 1002.7
20260505003506 20 304 41.8 57.9 0.00 0.00 0.00 100 1002.1
20260505003006 20 310 37.0 46.7 0.00 0.00 0.00 100 1002.1
20260505002505 20 311 32.2 48.3 0.00 0.00 0.00 100 1002.0
20260505001006 21 320 29.0 40.2 0.00 0.00 0.00 100 1001.4
20260505000005 22 323 33.8 41.8 0.00 0.00 0.00 100 1001.1
20260504235506 22 322 27.4 45.1 0.00 0.00 0.00 100 1001.1
20260504235006 22 327 33.8 49.9 0.00 0.00 0.00 100 1001.1
20260504234505 22 317 25.7 35.4 0.00 0.00 0.00 100 1001.0
20260504233505 23 319 24.1 40.2 0.00 0.00 0.00 100 1000.9
20260504233006 23 327 29.0 38.6 0.00 0.00 0.00 100 1001.0
20260504232505 23 320 30.6 46.7 0.00 0.00 0.00 100 1000.8
20260504231505 23 321 32.2 45.1 0.00 0.00 0.00 100 1000.6
20260504230505 25 324 32.2 41.8 0.00 0.00 0.00 100 1000.3
20260504225505 25 316 27.4 38.6 0.00 0.00 0.00 100 1000.3
20260504224505 25 325 22.5 38.6 0.00 0.00 0.00 100 1000.1
20260504224006 26 311 33.8 45.1 0.00 0.00 0.00 100 1000.0
20260504223505 26 322 32.2 48.3 0.00 0.00 0.00 100 999.9
20260504222005 27 323 30.6 48.3 0.00 0.00 0.00 100 999.5
20260504221005 27 302 32.2 45.1 0.00 0.00 0.00 100 999.4
20260504220505 27 321 25.7 33.8 0.00 0.00 0.00 100 999.3
20260504214005 28 239 14.5 33.8 0.00 0.00 0.00 100 999.3
20260504213505 27 246 16.1 20.9 0.00 0.00 0.00 100 999.5
20260504213005 27 252 20.9 33.8 0.00 0.00 0.00 100 999.6
20260504211505 28 257 19.3 32.2 0.00 0.00 0.00 100 999.6
20260504205505 27 262 22.5 35.4 0.00 0.00 0.00 100 999.6
20260504204005 27 248 20.9 32.2 0.00 0.00 0.00 100 1000.0
20260504203504 27 266 27.4 40.2 0.00 0.00 0.00 100 1000.0
20260504203005 27 263 25.7 41.8 0.00 0.00 0.00 100 1000.1
20260504202505 27 258 19.3 45.1 0.00 0.00 0.00 100 1000.1
20260504201504 26 253 20.9 35.4 0.00 0.00 0.00 100 1000.3
20260504201005 26 251 20.9 29.0 0.00 0.00 0.00 100 1000.4
20260504200505 27 257 24.1 35.4 0.00 0.00 0.00 100 1000.3
20260504195004 27 258 27.4 38.6 0.00 0.00 0.00 100 1000.5
20260504194505 27 258 22.5 32.2 0.00 0.00 0.00 100 1000.6
20260504194005 27 257 29.0 38.6 0.00 0.00 0.00 100 1000.6
20260504193504 27 264 27.4 41.8 0.00 0.00 0.00 100 1000.6
20260504193005 27 247 22.5 41.8 0.00 0.00 0.00 100 1000.6
20260504192505 27 248 24.1 37.0 0.00 0.00 0.00 100 1000.8
20260504192004 27 265 16.1 37.0 0.00 0.00 0.00 100 1000.8
20260504190505 28 271 27.4 41.8 0.00 0.00 0.00 100 1000.8
20260504190005 28 272 29.0 45.1 0.00 0.00 0.00 100 1000.8
20260504185505 27 253 19.3 32.2 0.00 0.00 0.00 100 1001.0
20260504184005 28 256 20.9 32.2 0.00 0.00 0.00 100 1001.1
20260504183505 28 225 22.5 38.6 0.00 0.00 0.00 100 1001.0
20260504183004 28 248 20.9 37.0 0.00 0.00 0.00 100 1001.0
20260504182005 27 269 20.9 35.4 0.00 0.00 0.00 100 1001.1
20260504175505 27 264 16.1 32.2 0.00 0.00 0.00 100 1001.0
20260504174005 26 241 20.9 29.0 0.00 0.00 0.00 100 1001.1
20260504173004 27 250 16.1 25.7 0.00 0.00 0.00 100 1001.5
20260504172505 26 218 12.9 25.7 0.00 0.00 0.00 100 1001.4
20260504170504 26 243 19.3 25.7 0.00 0.00 0.00 100 1001.8
20260504140505 17 206 8.0 12.9 0.00 0.00 0.00 100 1004.2
20260504081504 7 177 0.0 3.2 0.00 0.03 0.00 100 1006.8
20260504081004 7 177 1.6 1.6 0.00 0.03 0.00 100 1006.8